This demonstration page uses our WeatherBlox Daily Observations layout. Learn more.

36.17497, -115.13722

Hourly Observations for July 5, 2020

Temp ( °F °C ) Dew Point ( °F °C ) Humidity (%) Winds ( mph kmh ) Pressure ( in mb ) Visibility ( mi km ) Precip ( " mm )
12:53 am 00:53 Clear 90 32.2 34 1.1 14 14 Calm 29.82 1010 10 16.0934 0 0
1:53 am 01:53 Clear 88 31.1 32 0 13 13 NNW 8 13 29.82 1010 10 16.0934 0 0
2:53 am 02:53 Clear 87 30.6 33 0.6 14 14 SW 3 6 29.82 1010 10 16.0934 0 0
3:53 am 03:53 Clear 82 27.8 36 2.2 19 19 W 5 7 29.83 1010 10 16.0934 0 0
4:53 am 04:53 Clear 84 28.9 35 1.7 17 17 WNW 3 6 29.85 1011 10 16.0934 0 0
5:53 am 05:53 Sunny 86 30 29 -1.7 13 13 W 5 7 29.85 1011 10 16.0934 0 0
6:53 am 06:53 Sunny 84 28.9 33 0.6 16 16 Calm 29.87 1011 10 16.0934 0 0
7:53 am 07:53 Sunny 89 31.7 34 1.1 14 14 WNW 3 6 29.88 1012 10 16.0934 0 0
8:53 am 08:53 Sunny 94 34.4 31 -0.6 11 11 NW 5 7 29.88 1012 10 16.0934 0 0
9:53 am 09:53 Sunny 97 36.1 29 -1.7 9 9 Calm 29.87 1012 10 16.0934 0 0
10:53 am 10:53 Sunny 99 37.2 29 -1.7 8 8 VRB 3 6 29.86 1011 10 16.0934 0 0
11:53 am 11:53 Sunny 101 38.3 28 -2.2 8 8 Calm 29.85 1011 10 16.0934 0 0
12:53 pm 12:53 Sunny 104 40 33 0.6 8 8 undefined N/A 29.83 1010 10 16.0934 0 0
1:53 pm 13:53 Sunny 105 40.6 28 -2.2 7 7 S 7 11 29.81 1009 10 16.0934 0 0
2:53 pm 14:53 Sunny 106 41.1 25 -3.9 6 6 undefined N/A 29.78 1008 10 16.0934 0 0
3:53 pm 15:53 Sunny 107 41.7 23 -5 5 5 SW 16 26 29.76 1008 10 16.0934 0 0
4:53 pm 16:53 Sunny 107 41.7 23 -5 5 5 SSE 9 15 29.73 1007 10 16.0934 0 0
5:53 pm 17:53 Sunny 106 41.1 24 -4.4 5 5 undefined N/A 29.72 1006 10 16.0934 0 0
6:53 pm 18:53 Sunny 106 41.1 24 -4.4 5 5 S 6 9 29.71 1006 10 16.0934 0 0
7:53 pm 19:53 Sunny 104 40 29 -1.7 7 7 WSW 9 15 29.7 1006 10 16.0934 0 0
8:53 pm 20:53 Clear 101 38.3 30 -1.1 8 8 W 9 15 29.72 1006 10 16.0934 0 0
9:53 pm 21:53 Clear 99 37.2 31 -0.6 9 9 W 3 6 29.73 1007 10 16.0934 0 0
10:53 pm 22:53 Clear 95 35 30 -1.1 10 10 NW 5 7 29.73 1007 10 16.0934 0 0
11:53 pm 23:53 Clear 93 33.9 32 0 11 11 W 5 7 29.74 1007 10 16.0934 0 0

Powered by AerisWeather